www.pogodaiklimat.ru

ПОГОДА в Уинстон-Сейлеме, NC

  • Прогноз погоды в Уинстон-Сейлеме
  • Монитор погоды в Уинстон-Сейлеме
  • Климат в Уинстон-Сейлеме

АРХИВ ПОГОДЫ в Уинстон-Сейлеме

Время (UTC), дата Ветер
(напр.,м/с)
 
Видим.   Явления Облачность Т
(С)
Тd
(С)
f
(%)
Тe
(С)
Тes
(С)
Комфортность

P
(гПа)

Po
(гПа)
Тmin
(С)
Tmax
(С)
R
(мм)
SD
(см)
14:54 20.03 СВ  16 км    ясно  +10.0  -5.0  34  +8  +13    1026.8  991.2         
15:54 20.03 нст  16 км    ясно  +11.1  -5.6  31  +10  +20  опасность
простуды 
1025.7  990.2         
16:54 20.03   16 км    ясно  +11.7  -5.6  29  +12  +31  опасность
простуды 
1024.7  989.3  +0.6  +12.2     
17:54 20.03 нст  16 км    2/2 1800 м  +13.3  -5.0  28  +13  +26  опасность
простуды 
1022.7  987.3         
18:54 20.03 нст  16 км    ясно  +13.9  -5.0  27  +13  +24  опасность
простуды 
1021.5  986.0         
19:54 20.03 В  16 км    2/2 1950 м  +15.0  -3.9  27  +14  +19    1021.1  985.7         
20:54 20.03 В  16 км    10/10 1500 м  +13.3  -3.3  31  +12  +12    1020.9  985.3         
21:54 20.03 В  16 км    10/10 1320 м  +12.8  -3.3  32  +11  +11    1020.6  985.3         
22:54 20.03 В  16 км    10/10 1200 м  +11.7  -3.9  33  +10  +10    1020.4  985.0  +11.7  +15.0     
23:54 20.03 В  16 км    10/10 1140 м  +11.1  -2.8  38  +10  +10    1020.6  985.3         
00:54 21.03 В  16 км    10/10 1080 м  +10.6  -1.1  44  +9  +9    1020.7  985.3         
01:54 21.03 ЮВ  11 км  слабый дождь  10/10 1500 м  +7.8  +3.3  73  +4  +4    1020.2  985.0      0.3   
02:54 21.03 СВ  11 км  слабый дождь  10/10 840 м  +6.1  +5.0  93  +3  +3    1019.3  984.0         
03:08 21.03 В  13 км  слабый дождь  10/10 780 м  +6.1  +4.4  89  +3  +3      984.0         
03:54 21.03 СВ  6 км  слабый дождь, дымка  10/10 750 м  +5.6  +4.4  92  +1  +1    1018.5  983.4         
04:25 21.03 С  14 км  слабый дождь  10/10 360 м  +5.6  +4.4  92  +2  +2      982.7         
04:37 21.03 С  16 км    10/10 210 м  +5.6  +4.4  92  +1  +1      982.4         
04:54 21.03 С  11 км  слабый дождь  10/10 210 м  +5.6  +4.4  92  +1  +1    1017.3  982.1  +5.6  +11.7  3.0   
05:36 21.03 С  6 км  слабый дождь, дымка  10/10 210 м  +5.6  +4.4  92  +1  +1      982.1         
05:54 21.03 С  8 км  слабый дождь, дымка  10/10 360 м  +5.0  +4.4  96  +1  +1    1016.6  981.7         
06:02 21.03 С  10 км  слабый дождь, дымка  10/10 210 м  +5.0  +4.4  96  0  0      981.4         
06:54 21.03 С  10 км  дымка  10/10 360 м  +5.0  +3.9  93  -0  -0    1015.4  980.4         
07:06 21.03 С  8 км  дымка  10/10 240 м  +5.0  +4.4  96  0  0      980.1         
07:54 21.03 С  6 км  слабый дождь, дымка  10/10 180 м  +5.0  +4.4  96  0  0    1014.5  979.4      1.0   
08:54 21.03 С  10 км  слабый дождь, дымка  10/10 420 м  +5.6  +5.0  96  +1  +1    1013.8  978.8         
09:10 21.03 С  14 км  слабый дождь  10/10 420 м  +5.6  +5.0  96  +1  +1      978.8         
09:23 21.03 С  8 км  слабый дождь, дымка  10/10 660 м  +5.6  +5.0  96  +1  +1      978.5         
09:54 21.03 СВ  10 км  слабый дождь, дымка  10/10 960 м  +5.6  +5.0  96  +1  +1    1013.0  978.1         
10:54 21.03 С  13 км  слабый дождь  10/10 1410 м  +6.1  +5.6  97  +2  +2    1012.5  977.5  +5.0  +6.7  2.8   
11:01 21.03 СЗ  14 км  слабый дождь  10/10 210 м  +6.1  +5.6  97  +2  +2      977.8         
11:10 21.03 С  16 км  слабый дождь  10/10 210 м  +6.7  +5.6  93  +3  +3      977.5         
11:54 21.03 С  16 км    10/10 270 м  +7.2  +6.1  93  +3  +3    1012.5  977.5         
12:02 21.03 С  16 км    10/10 330 м  +7.2  +6.1  93  +3  +3      977.8         
12:54 21.03 С  16 км    10/10 390 м  +8.3  +6.7  90  +5  +5    1012.1  977.2         
13:54 21.03 СВ  16 км    8/8 360 м  +11.1  +7.2  77  +9  +10    1011.8  976.8      0.3   
14:25 21.03 С  16 км    8/8 450 м  +11.1  +6.7  74  +9  +10      976.5         
14:54 21.03 нст  16 км    8/8 570 м  +11.7  +6.7  71  +11  +13    1010.9  975.8         
15:45 21.03 З  16 км    5/5 780 м  +13.3  +5.6  60  +12  +17      975.2         
15:54 21.03 нст  16 км    5/5 900 м  +13.3  +5.6  60  +12  +17    1009.8  974.9         
16:54 21.03 ЮЗ  3
{8} 
16 км    5/5 1500 м
[средняя] 
+14.4  +2.8  46  +13  +19    1008.7  973.9  +6.1  +14.4  0.3   
17:54 21.03 З  4
{9} 
16 км    10/10 1950 м  +14.4  +0.6  39  +13  +13    1007.7  972.9         
18:54 21.03 З  6
{11} 
16 км    8/2 1800 м
[средняя] 
+13.9  +2.2  45  +12  +13    1007.5  972.9         
19:54 21.03 З  16 км    10/0 2850 м
[средняя] 
+13.9  +2.2  45  +12  +13    1007.2  972.6         
20:54 21.03 З  6
{9} 
16 км    10/8 1650 м
[средняя] 
+13.3  +2.8  49  +11  +11    1007.5  972.9         
21:54 21.03 СЗ  16 км  слабый дождь  10/10 1650 м  +10.6  +5.6  71  +8  +8    1008.2  973.6         
22:54 21.03 З  16 км    5/0 2100 м
[средняя] 
+10.6  +4.4  65  +9  +9    1008.3  973.6  +10.6  +15.0     
23:54 21.03 З  16 км    2/0 2850 м
[средняя] 
+10.0  +2.8  61  +8  +8    1008.9  974.2         
00:54 22.03 З  16 км    ясно  +9.4  +2.2  61  +7  +7    1008.9  973.9         

 

Местоположение метеостанции Smith Reynolds Airport: широта 36.1333 долгота -80.2247 высота над уровнем моря 295 м.

В архиве по умолчанию представлена погода в Уинстон-Сейлеме за последние 1-2 суток. Обновление информации о фактической погоде в базе происходит ежечасно! Архивные данные за месяц целиком и за предыдущие месяцы Вы можете получить, выбрав интересующий диапазон дат из раскрывающегося списка и нажав кнопку "Ввод!".

Внимание! Архив погоды МЕТАР в базе сайта хранится не более 60 дней. Нет смысла пытаться выбрать более раннюю дату.

Внимание! Время в таблицах - всемирное. Для получения местного времени необходимо прибавить поправку, которая в Уинстон-Сейлеме равна -5 ч.

Ветер - указаны скорость ветра в м/с и направление, откуда дует ветер: С - северный, СВ - северо-восточный, В - восточный, ЮВ - юго-восточный, Ю - южный, ЮЗ - юго-западный, З - западный, СЗ - северо-западный.
Видимость - горизонтальная дальность видимости в метрах или километрах. При видимости от 1 до 10 км при отсутствии осадков обычно наблюдается дымка, при ухудшении видимости до 1 км и менее - туман. В сухую погоду видимость может ухудшаться дымом, пылью или мглою.
Атмосферные явления - указаны явления, наблюдавшиеся в указанный момент времени.
Облачность - указаны через наклонную черту верхняя и нижняя облачность в баллах и высота нижней границы облаков в метрах. Внимание: облачность, как и прочие метеорологические величины в США измеряются автоматическими метеостанциями. Указанные значения в баллах носят условный характер и показывают процент времени, в течение которого, в среднем, лазерный луч высотомера отражался от облаков обратно.
T - Температура воздуха - температура, измеренная на высоте 2 м над землей.
Td - Температура точки росы - температура, при понижении до которой содержащийся в воздухе водяной пар достигнет насыщения.
f - Относительная влажность воздуха - влажноcть воздуха, измеренная на высоте 2 м над землей.
Te - Эффективная температура - температура, которую ощущает одетый по сезону человек в тени. Характеристика душности погоды. При расчете учитывается влияние влажности воздуха и скорости ветра на теплоощущения человека.
Tes - Эффективная температура на солнце - температура, которую ощущает человек, с поправкой на солнечный нагрев. Характеристика знойности погоды. Зависит от высоты солнца над горизонтом, облачности и скорости ветра. Ночью, в пасмурную погоду, а также при ветре 12 м/с и более поправка равна нулю.
P - Атмосферное давление - приведенное к уровню моря атмосферное давление.
Po - Атмосферное давление - измеренное на уровне метеостанции атмосферное давление.
Tmin - Минимальная температура - минимум температуры воздуха на высоте 2 м над землей.
Tmax - Максимальная температура - максимум температуры воздуха на высоте 2 м над землей.
R - Количество осадков - Количество выпавших осадков за 3 или 6 часов, мм.
SD - Снежный покров - Высота снежного покрова, см.